Year,Month,Day,Hour,Minute,Value (Times are PST for temperature in C)
2021,04,17,00,00,10.20
2021,04,17,00,01,10.20
2021,04,17,00,02,10.20
2021,04,17,00,03,10.20
2021,04,17,00,04,10.10
2021,04,17,00,05,10.10
2021,04,17,00,06,10.10
2021,04,17,00,07,10.10
2021,04,17,00,08,10.10
2021,04,17,00,09,10.10
2021,04,17,00,10,10.10
2021,04,17,00,11,10.10
2021,04,17,00,12,10.10
2021,04,17,00,13,10.00
2021,04,17,00,14,9.90
2021,04,17,00,15,9.90
2021,04,17,00,16,9.90
2021,04,17,00,17,9.90
2021,04,17,00,18,9.90
2021,04,17,00,19,9.90
2021,04,17,00,20,9.90
2021,04,17,00,21,9.90
2021,04,17,00,22,9.90
2021,04,17,00,23,9.80
2021,04,17,00,24,9.80
2021,04,17,00,25,9.80
2021,04,17,00,26,9.70
2021,04,17,00,27,9.70
2021,04,17,00,28,9.70
2021,04,17,00,29,9.70
2021,04,17,00,30,9.70
2021,04,17,00,31,9.60
2021,04,17,00,32,9.60
2021,04,17,00,33,9.60
2021,04,17,00,34,9.60
2021,04,17,00,35,9.50
2021,04,17,00,36,9.50
2021,04,17,00,37,9.50
2021,04,17,00,38,9.50
2021,04,17,00,39,9.40
2021,04,17,00,40,9.40
2021,04,17,00,41,9.40
2021,04,17,00,42,9.40
2021,04,17,00,43,9.40
2021,04,17,00,44,9.30
2021,04,17,00,45,9.30
2021,04,17,00,46,9.30
2021,04,17,00,47,9.30
2021,04,17,00,48,9.30
2021,04,17,00,49,9.30
2021,04,17,00,50,9.30
2021,04,17,00,51,9.30
2021,04,17,00,52,9.20
2021,04,17,00,53,9.20
2021,04,17,00,54,9.20
2021,04,17,00,55,9.20
2021,04,17,00,56,9.20
2021,04,17,00,57,9.20
2021,04,17,00,58,9.20
2021,04,17,00,59,9.10
2021,04,17,01,00,9.10
2021,04,17,01,01,9.10
2021,04,17,01,02,9.10
2021,04,17,01,03,9.00
2021,04,17,01,04,9.00
2021,04,17,01,05,9.00
2021,04,17,01,06,9.00
2021,04,17,01,07,9.00
2021,04,17,01,08,9.00
2021,04,17,01,09,9.00
2021,04,17,01,10,8.90
2021,04,17,01,11,8.90
2021,04,17,01,12,8.90
2021,04,17,01,13,8.90
2021,04,17,01,14,8.90
2021,04,17,01,15,8.80
2021,04,17,01,16,8.80
2021,04,17,01,17,8.80
2021,04,17,01,18,8.80
2021,04,17,01,19,8.80
2021,04,17,01,20,8.80
2021,04,17,01,21,8.70
2021,04,17,01,22,8.70
2021,04,17,01,23,8.70
2021,04,17,01,24,8.70
2021,04,17,01,25,8.70
2021,04,17,01,26,8.70
2021,04,17,01,27,8.70
2021,04,17,01,28,8.70
2021,04,17,01,29,8.70
2021,04,17,01,30,8.70
2021,04,17,01,31,8.70
2021,04,17,01,32,8.70
2021,04,17,01,33,8.70
2021,04,17,01,34,8.70
2021,04,17,01,35,8.70
2021,04,17,01,36,8.70
2021,04,17,01,37,8.70
2021,04,17,01,38,8.70
2021,04,17,01,39,8.70
2021,04,17,01,40,8.70
2021,04,17,01,41,8.70
2021,04,17,01,42,8.70
2021,04,17,01,43,8.70
2021,04,17,01,44,8.70
2021,04,17,01,45,8.70
2021,04,17,01,46,8.70
2021,04,17,01,47,8.70
2021,04,17,01,48,8.60
2021,04,17,01,49,8.60
2021,04,17,01,50,8.60
2021,04,17,01,51,8.60
2021,04,17,01,52,8.60
2021,04,17,01,53,8.60
2021,04,17,01,54,8.60
2021,04,17,01,55,8.60
2021,04,17,01,56,8.60
2021,04,17,01,57,8.50
2021,04,17,01,58,8.50
2021,04,17,01,59,8.50
2021,04,17,02,00,8.50
2021,04,17,02,01,8.50
2021,04,17,02,02,8.50
2021,04,17,02,03,8.50
2021,04,17,02,04,8.40
2021,04,17,02,05,8.40
2021,04,17,02,06,8.40
2021,04,17,02,07,8.40
2021,04,17,02,08,8.40
2021,04,17,02,09,8.30
2021,04,17,02,10,8.30
2021,04,17,02,11,8.30
2021,04,17,02,12,8.30
2021,04,17,02,13,8.30
2021,04,17,02,14,8.20
2021,04,17,02,15,8.20
2021,04,17,02,16,8.20
2021,04,17,02,17,8.20
2021,04,17,02,18,8.20
2021,04,17,02,19,8.20
2021,04,17,02,20,8.20
2021,04,17,02,21,8.20
2021,04,17,02,22,8.20
2021,04,17,02,23,8.20
2021,04,17,02,24,8.10
2021,04,17,02,25,8.10
2021,04,17,02,26,8.10
2021,04,17,02,27,8.10
2021,04,17,02,28,8.10
2021,04,17,02,29,8.10
2021,04,17,02,30,8.10
2021,04,17,02,31,8.10
2021,04,17,02,32,8.10
2021,04,17,02,33,8.10
2021,04,17,02,34,8.00
2021,04,17,02,35,8.00
2021,04,17,02,36,8.00
2021,04,17,02,37,8.10
2021,04,17,02,38,8.00
2021,04,17,02,39,8.00
2021,04,17,02,40,8.00
2021,04,17,02,41,8.00
2021,04,17,02,42,8.00
2021,04,17,02,43,8.00
2021,04,17,02,44,8.00
2021,04,17,02,45,8.00
2021,04,17,02,46,8.00
2021,04,17,02,47,8.00
2021,04,17,02,48,8.00
2021,04,17,02,49,8.00
2021,04,17,02,50,8.00
2021,04,17,02,51,8.00
2021,04,17,02,52,8.00
2021,04,17,02,53,8.00
2021,04,17,02,54,8.00
2021,04,17,02,55,8.00
2021,04,17,02,56,7.90
2021,04,17,02,57,7.90
2021,04,17,02,58,7.90
2021,04,17,02,59,7.80
2021,04,17,03,00,7.80
2021,04,17,03,01,7.80
2021,04,17,03,02,7.80
2021,04,17,03,03,7.80
2021,04,17,03,04,7.80
2021,04,17,03,05,7.80
2021,04,17,03,06,7.80
2021,04,17,03,07,7.80
2021,04,17,03,08,7.80
2021,04,17,03,09,7.80
2021,04,17,03,10,7.80
2021,04,17,03,11,7.80
2021,04,17,03,12,7.80
2021,04,17,03,13,7.70
2021,04,17,03,14,7.70
2021,04,17,03,15,7.70
2021,04,17,03,16,7.70
2021,04,17,03,17,7.70
2021,04,17,03,18,7.70
2021,04,17,03,19,7.70
2021,04,17,03,20,7.70
2021,04,17,03,21,7.70
2021,04,17,03,22,7.70
2021,04,17,03,23,7.70
2021,04,17,03,24,7.70
2021,04,17,03,25,7.70
2021,04,17,03,26,7.70
2021,04,17,03,27,7.70
2021,04,17,03,28,7.70
2021,04,17,03,29,7.70
2021,04,17,03,30,7.70
2021,04,17,03,31,7.70
2021,04,17,03,32,7.70
2021,04,17,03,33,7.70
2021,04,17,03,34,7.70
2021,04,17,03,35,7.70
2021,04,17,03,36,7.60
2021,04,17,03,37,7.60
2021,04,17,03,38,7.60
2021,04,17,03,39,7.50
2021,04,17,03,40,7.50
2021,04,17,03,41,7.50
2021,04,17,03,42,7.40
2021,04,17,03,43,7.40
2021,04,17,03,44,7.40
2021,04,17,03,45,7.30
2021,04,17,03,46,7.30
2021,04,17,03,47,7.30
2021,04,17,03,48,7.30
2021,04,17,03,49,7.30
2021,04,17,03,50,7.30
2021,04,17,03,51,7.30
2021,04,17,03,52,7.30
2021,04,17,03,53,7.30
2021,04,17,03,54,7.30
2021,04,17,03,55,7.30
2021,04,17,03,56,7.30
2021,04,17,03,57,7.30
2021,04,17,03,58,7.30
2021,04,17,03,59,7.30
2021,04,17,04,00,7.30
2021,04,17,04,01,7.20
2021,04,17,04,02,7.20
2021,04,17,04,03,7.20
2021,04,17,04,04,7.20
2021,04,17,04,05,7.20
2021,04,17,04,06,7.20
2021,04,17,04,07,7.20
2021,04,17,04,08,7.20
2021,04,17,04,09,7.20
2021,04,17,04,10,7.20
2021,04,17,04,11,7.20
2021,04,17,04,12,7.20
2021,04,17,04,13,7.20
2021,04,17,04,14,7.20
2021,04,17,04,15,7.20
2021,04,17,04,16,7.20
2021,04,17,04,17,7.20
2021,04,17,04,18,7.20
2021,04,17,04,19,7.30
2021,04,17,04,20,7.30
2021,04,17,04,21,7.30
2021,04,17,04,22,7.30
2021,04,17,04,23,7.30
2021,04,17,04,24,7.30
2021,04,17,04,25,7.30
2021,04,17,04,26,7.30
2021,04,17,04,27,7.30
2021,04,17,04,28,7.30
2021,04,17,04,29,7.30
2021,04,17,04,30,7.30
2021,04,17,04,31,7.30
2021,04,17,04,32,7.30
2021,04,17,04,33,7.30
2021,04,17,04,34,7.30
2021,04,17,04,35,7.30
2021,04,17,04,36,7.30
2021,04,17,04,37,7.30
2021,04,17,04,38,7.30
2021,04,17,04,39,7.20
2021,04,17,04,40,7.20
2021,04,17,04,41,7.20
2021,04,17,04,42,7.20
2021,04,17,04,43,7.20
2021,04,17,04,44,7.20
2021,04,17,04,45,7.10
2021,04,17,04,46,7.10
2021,04,17,04,47,7.10
2021,04,17,04,48,7.10
2021,04,17,04,49,7.10
2021,04,17,04,50,7.10
2021,04,17,04,51,7.10
2021,04,17,04,52,7.10
2021,04,17,04,53,7.10
2021,04,17,04,54,7.10
2021,04,17,04,55,7.10
2021,04,17,04,56,7.10
2021,04,17,04,57,7.10
2021,04,17,04,58,7.10
2021,04,17,04,59,7.10
2021,04,17,05,00,7.10
2021,04,17,05,01,7.10
2021,04,17,05,02,7.10
2021,04,17,05,03,7.10
2021,04,17,05,04,7.10
2021,04,17,05,05,7.10
2021,04,17,05,06,7.10
2021,04,17,05,07,7.10
2021,04,17,05,08,7.10
2021,04,17,05,09,7.10
2021,04,17,05,10,7.10
2021,04,17,05,11,7.10
2021,04,17,05,12,7.10
2021,04,17,05,13,7.10
2021,04,17,05,14,7.10
2021,04,17,05,15,7.10
2021,04,17,05,16,7.10
2021,04,17,05,17,7.10
2021,04,17,05,18,7.10
2021,04,17,05,19,7.10
2021,04,17,05,20,7.10
2021,04,17,05,21,7.10
2021,04,17,05,22,7.10
2021,04,17,05,23,7.00
2021,04,17,05,24,7.00
2021,04,17,05,25,7.00
2021,04,17,05,26,7.00
2021,04,17,05,27,7.00
2021,04,17,05,28,7.00
2021,04,17,05,29,7.00
2021,04,17,05,30,7.00
2021,04,17,05,31,7.00
2021,04,17,05,32,7.00
2021,04,17,05,33,7.00
2021,04,17,05,34,7.00
2021,04,17,05,35,7.00
2021,04,17,05,36,7.00
2021,04,17,05,37,7.00
2021,04,17,05,38,6.90
2021,04,17,05,39,6.90
2021,04,17,05,40,6.90
2021,04,17,05,41,6.90
2021,04,17,05,42,6.90
2021,04,17,05,43,6.90
2021,04,17,05,44,6.90
2021,04,17,05,45,6.90
2021,04,17,05,46,6.80
2021,04,17,05,47,6.80
2021,04,17,05,48,6.80
2021,04,17,05,49,6.80
2021,04,17,05,50,6.80
2021,04,17,05,51,6.80
2021,04,17,05,52,6.80
2021,04,17,05,53,6.80
2021,04,17,05,54,6.80
2021,04,17,05,55,6.80
2021,04,17,05,56,6.80
2021,04,17,05,57,6.80
2021,04,17,05,58,6.80
2021,04,17,05,59,6.90
2021,04,17,06,00,6.90
2021,04,17,06,01,6.90
2021,04,17,06,02,6.90
2021,04,17,06,03,6.90
2021,04,17,06,04,6.90
2021,04,17,06,05,7.00
2021,04,17,06,06,7.00
2021,04,17,06,07,7.00
2021,04,17,06,08,7.00
2021,04,17,06,09,7.10
2021,04,17,06,10,7.10
2021,04,17,06,11,7.10
2021,04,17,06,12,7.10
2021,04,17,06,13,7.10
2021,04,17,06,14,7.10
2021,04,17,06,15,7.00
2021,04,17,06,16,7.00
2021,04,17,06,17,7.00
2021,04,17,06,18,7.00
2021,04,17,06,19,6.90
2021,04,17,06,20,6.90
2021,04,17,06,21,6.80
2021,04,17,06,22,6.80
2021,04,17,06,23,6.80
2021,04,17,06,24,6.80
2021,04,17,06,25,6.80
2021,04,17,06,26,6.80
2021,04,17,06,27,6.80
2021,04,17,06,28,6.80
2021,04,17,06,29,6.80
2021,04,17,06,30,6.80
2021,04,17,06,31,6.80
2021,04,17,06,32,6.80
2021,04,17,06,33,6.80
2021,04,17,06,34,6.80
2021,04,17,06,35,6.80
2021,04,17,06,36,6.80
2021,04,17,06,37,6.80
2021,04,17,06,38,6.80
2021,04,17,06,39,6.80
2021,04,17,06,40,6.80
2021,04,17,06,41,6.80
2021,04,17,06,42,6.80
2021,04,17,06,43,6.80
2021,04,17,06,44,6.80
2021,04,17,06,45,6.80
2021,04,17,06,46,6.80
2021,04,17,06,47,6.80
2021,04,17,06,48,6.90
2021,04,17,06,49,6.90
2021,04,17,06,50,7.00
2021,04,17,06,51,7.00
2021,04,17,06,52,7.10
2021,04,17,06,53,7.10
2021,04,17,06,54,7.20
2021,04,17,06,55,7.30
2021,04,17,06,56,7.30
2021,04,17,06,57,7.30
2021,04,17,06,58,7.30
2021,04,17,06,59,7.30
2021,04,17,07,00,7.30
2021,04,17,07,01,7.30
2021,04,17,07,02,7.30
2021,04,17,07,03,7.50
2021,04,17,07,04,7.80
2021,04,17,07,05,7.80
2021,04,17,07,06,7.90
2021,04,17,07,07,7.90
2021,04,17,07,08,8.00
2021,04,17,07,09,8.10
2021,04,17,07,10,8.20
2021,04,17,07,11,8.20
2021,04,17,07,12,8.20
2021,04,17,07,13,8.20
2021,04,17,07,14,8.20
2021,04,17,07,15,8.20
2021,04,17,07,16,8.30
2021,04,17,07,17,8.30
2021,04,17,07,18,8.40
2021,04,17,07,19,8.40
2021,04,17,07,20,8.50
2021,04,17,07,21,8.60
2021,04,17,07,22,8.70
2021,04,17,07,23,8.70
2021,04,17,07,24,8.80
2021,04,17,07,25,8.90
2021,04,17,07,26,9.00
2021,04,17,07,27,9.10
2021,04,17,07,28,9.20
2021,04,17,07,29,9.20
2021,04,17,07,30,9.30
2021,04,17,07,31,9.40
2021,04,17,07,32,9.50
2021,04,17,07,33,9.50
2021,04,17,07,34,9.60
2021,04,17,07,35,9.70
2021,04,17,07,36,9.70
2021,04,17,07,37,9.80
2021,04,17,07,38,9.90
2021,04,17,07,39,10.00
2021,04,17,07,40,10.10
2021,04,17,07,41,10.10
2021,04,17,07,42,10.20
2021,04,17,07,43,10.30
2021,04,17,07,44,10.40
2021,04,17,07,45,10.50
2021,04,17,07,46,10.60
2021,04,17,07,47,10.70
2021,04,17,07,48,10.80
2021,04,17,07,49,10.90
2021,04,17,07,50,11.00
2021,04,17,07,51,11.10
2021,04,17,07,52,11.20
2021,04,17,07,53,11.30
2021,04,17,07,54,11.40
2021,04,17,07,55,11.50
2021,04,17,07,56,11.60
2021,04,17,07,57,11.60
2021,04,17,07,58,11.70
2021,04,17,07,59,11.80
2021,04,17,08,00,11.80
2021,04,17,08,01,11.90
2021,04,17,08,02,12.00
2021,04,17,08,03,12.10
2021,04,17,08,04,12.20
2021,04,17,08,05,12.30
2021,04,17,08,06,12.40
2021,04,17,08,07,12.60
2021,04,17,08,08,12.60
2021,04,17,08,09,12.70
2021,04,17,08,10,12.80
2021,04,17,08,11,12.80
2021,04,17,08,12,12.90
2021,04,17,08,13,12.90
2021,04,17,08,14,13.00
2021,04,17,08,15,13.10
2021,04,17,08,16,13.20
2021,04,17,08,17,13.30
2021,04,17,08,18,13.30
2021,04,17,08,19,13.40
2021,04,17,08,20,13.60
2021,04,17,08,21,13.70
2021,04,17,08,22,13.80
2021,04,17,08,23,13.90
2021,04,17,08,24,14.00
2021,04,17,08,25,14.10
2021,04,17,08,26,14.20
2021,04,17,08,27,14.20
2021,04,17,08,28,14.40
2021,04,17,08,29,14.50
2021,04,17,08,30,14.60
2021,04,17,08,31,14.60
2021,04,17,08,32,14.80
2021,04,17,08,33,14.80
2021,04,17,08,34,14.90
2021,04,17,08,35,15.10
2021,04,17,08,36,15.20
2021,04,17,08,37,15.40
2021,04,17,08,38,15.50
2021,04,17,08,39,15.70
2021,04,17,08,40,15.80
2021,04,17,08,41,15.90
2021,04,17,08,42,16.10
2021,04,17,08,43,16.20
2021,04,17,08,44,16.30
2021,04,17,08,45,16.40
2021,04,17,08,46,16.40
2021,04,17,08,47,16.40
2021,04,17,08,48,16.60
2021,04,17,08,49,16.60
2021,04,17,08,50,16.70
2021,04,17,08,51,16.70
2021,04,17,08,52,16.70
2021,04,17,08,53,16.70
2021,04,17,08,54,16.70
2021,04,17,08,55,16.70
2021,04,17,08,56,16.70
2021,04,17,08,57,16.70
2021,04,17,08,58,16.70
2021,04,17,08,59,16.70
2021,04,17,09,00,16.70
2021,04,17,09,01,16.70
2021,04,17,09,02,16.70
2021,04,17,09,03,16.70
2021,04,17,09,04,16.70
2021,04,17,09,05,16.70
2021,04,17,09,06,16.70
2021,04,17,09,07,16.70
2021,04,17,09,08,16.70
2021,04,17,09,09,16.70
2021,04,17,09,10,16.70
2021,04,17,09,11,16.70
2021,04,17,09,12,16.70
2021,04,17,09,13,16.70
2021,04,17,09,14,16.80
2021,04,17,09,15,16.80
2021,04,17,09,16,16.90
2021,04,17,09,17,16.90
2021,04,17,09,18,17.00
2021,04,17,09,19,17.00
2021,04,17,09,20,17.10
2021,04,17,09,21,17.10
2021,04,17,09,22,17.20
2021,04,17,09,23,17.20
2021,04,17,09,24,17.30
2021,04,17,09,25,17.30
2021,04,17,09,26,17.30
2021,04,17,09,27,17.40
2021,04,17,09,28,17.40
2021,04,17,09,29,17.50
2021,04,17,09,30,17.50
2021,04,17,09,31,17.60
2021,04,17,09,32,17.60
2021,04,17,09,33,17.70
2021,04,17,09,34,17.70
2021,04,17,09,35,17.80
2021,04,17,09,36,17.80
2021,04,17,09,37,17.80
2021,04,17,09,38,17.90
2021,04,17,09,39,17.90
2021,04,17,09,40,17.90
2021,04,17,09,41,17.90
2021,04,17,09,42,18.00
2021,04,17,09,43,18.10
2021,04,17,09,44,18.10
2021,04,17,09,45,18.20
2021,04,17,09,46,18.20
2021,04,17,09,47,18.20
2021,04,17,09,48,18.20
2021,04,17,09,49,18.20
2021,04,17,09,50,18.30
2021,04,17,09,51,18.30
2021,04,17,09,52,18.40
2021,04,17,09,53,18.50
2021,04,17,09,54,18.50
2021,04,17,09,55,18.50
2021,04,17,09,56,18.50
2021,04,17,09,57,18.60
2021,04,17,09,58,18.70
2021,04,17,09,59,18.70
2021,04,17,10,00,18.80
2021,04,17,10,01,18.80
2021,04,17,10,02,18.90
2021,04,17,10,03,18.90
2021,04,17,10,04,18.90
2021,04,17,10,05,19.10
2021,04,17,10,06,19.10
2021,04,17,10,07,19.10
2021,04,17,10,08,19.20
2021,04,17,10,09,19.30
2021,04,17,10,10,19.30
2021,04,17,10,11,19.40
2021,04,17,10,12,19.40
2021,04,17,10,13,19.30
2021,04,17,10,14,19.20
2021,04,17,10,15,19.20
2021,04,17,10,16,19.20
2021,04,17,10,17,19.20
2021,04,17,10,18,19.30
2021,04,17,10,19,19.30
2021,04,17,10,20,19.30
2021,04,17,10,21,19.30
2021,04,17,10,22,19.30
2021,04,17,10,23,19.30
2021,04,17,10,24,19.30
2021,04,17,10,25,19.30
2021,04,17,10,26,19.30
2021,04,17,10,27,19.30
2021,04,17,10,28,19.20
2021,04,17,10,29,19.10
2021,04,17,10,30,18.90
2021,04,17,10,31,18.90
2021,04,17,10,32,18.90
2021,04,17,10,33,18.90
2021,04,17,10,34,18.90
2021,04,17,10,35,18.90
2021,04,17,10,36,18.90
2021,04,17,10,37,18.90
2021,04,17,10,38,18.90
2021,04,17,10,39,18.90
2021,04,17,10,40,18.90
2021,04,17,10,41,18.80
2021,04,17,10,42,18.80
2021,04,17,10,43,18.80
2021,04,17,10,44,18.80
2021,04,17,10,45,18.80
2021,04,17,10,46,18.80
2021,04,17,10,47,18.90
2021,04,17,10,48,18.90
2021,04,17,10,49,18.80
2021,04,17,10,50,18.90
2021,04,17,10,51,18.90
2021,04,17,10,52,18.90
2021,04,17,10,53,19.00
2021,04,17,10,54,19.10
2021,04,17,10,55,18.90
2021,04,17,10,56,18.60
2021,04,17,10,57,18.00
2021,04,17,10,58,17.40
2021,04,17,10,59,16.80
2021,04,17,11,00,16.30
2021,04,17,11,01,15.80
2021,04,17,11,02,15.40
2021,04,17,11,03,15.10
2021,04,17,11,04,14.90
2021,04,17,11,05,14.80
2021,04,17,11,06,14.60
2021,04,17,11,07,14.50
2021,04,17,11,08,14.40
2021,04,17,11,09,14.20
2021,04,17,11,10,14.10
2021,04,17,11,11,14.10
2021,04,17,11,12,14.10
2021,04,17,11,13,14.10
2021,04,17,11,14,14.10
2021,04,17,11,15,14.10
2021,04,17,11,16,14.10
2021,04,17,11,17,14.10
2021,04,17,11,18,14.00
2021,04,17,11,19,14.10
2021,04,17,11,20,14.10
2021,04,17,11,21,14.10
2021,04,17,11,22,14.00
2021,04,17,11,23,14.00
2021,04,17,11,24,14.00
2021,04,17,11,25,14.00
2021,04,17,11,26,14.10
2021,04,17,11,27,14.10
2021,04,17,11,28,14.10
2021,04,17,11,29,14.10
2021,04,17,11,30,14.10
2021,04,17,11,31,14.20
2021,04,17,11,32,14.20
2021,04,17,11,33,14.20
2021,04,17,11,34,14.20
2021,04,17,11,35,14.20
2021,04,17,11,36,14.20
2021,04,17,11,37,14.20
2021,04,17,11,38,14.20
2021,04,17,11,39,14.10
2021,04,17,11,40,14.10
2021,04,17,11,41,14.10
2021,04,17,11,42,14.20
2021,04,17,11,43,14.20
2021,04,17,11,44,14.20
2021,04,17,11,45,14.30
2021,04,17,11,46,14.40
2021,04,17,11,47,14.40
2021,04,17,11,48,14.40
2021,04,17,11,49,14.40
2021,04,17,11,50,14.30
2021,04,17,11,51,14.20
2021,04,17,11,52,14.10
2021,04,17,11,53,14.10
2021,04,17,11,54,14.10
2021,04,17,11,55,14.20
2021,04,17,11,56,14.20
2021,04,17,11,57,14.20
2021,04,17,11,58,14.20
2021,04,17,11,59,14.20
2021,04,17,12,00,14.20
2021,04,17,12,01,14.20
2021,04,17,12,02,14.20
2021,04,17,12,03,14.20
2021,04,17,12,04,14.20
2021,04,17,12,05,14.20
2021,04,17,12,06,14.20
2021,04,17,12,07,14.30
2021,04,17,12,08,14.30
2021,04,17,12,09,14.40
2021,04,17,12,10,14.50
2021,04,17,12,11,14.50
2021,04,17,12,12,14.60
2021,04,17,12,13,14.70
2021,04,17,12,14,14.80
2021,04,17,12,15,14.80
2021,04,17,12,16,14.90
2021,04,17,12,17,15.00
2021,04,17,12,18,15.10
2021,04,17,12,19,15.20
2021,04,17,12,20,15.30
2021,04,17,12,21,15.40
2021,04,17,12,22,15.50
2021,04,17,12,23,15.60
2021,04,17,12,24,15.60
2021,04,17,12,25,15.70
2021,04,17,12,26,15.70
2021,04,17,12,27,15.70
2021,04,17,12,28,15.80
2021,04,17,12,29,15.90
2021,04,17,12,30,16.10
2021,04,17,12,31,16.20
2021,04,17,12,32,16.30
2021,04,17,12,33,16.30
2021,04,17,12,34,16.30
2021,04,17,12,35,16.30
2021,04,17,12,36,16.20
2021,04,17,12,37,16.10
2021,04,17,12,38,16.00
2021,04,17,12,39,15.90
2021,04,17,12,40,15.80
2021,04,17,12,41,15.80
2021,04,17,12,42,15.80
2021,04,17,12,43,15.80
2021,04,17,12,44,15.80
2021,04,17,12,45,15.90
2021,04,17,12,46,16.00
2021,04,17,12,47,16.10
2021,04,17,12,48,16.10
2021,04,17,12,49,16.10
2021,04,17,12,50,16.10
2021,04,17,12,51,16.00
2021,04,17,12,52,15.90
2021,04,17,12,53,15.80
2021,04,17,12,54,15.90
2021,04,17,12,55,16.00
2021,04,17,12,56,16.10
2021,04,17,12,57,16.20
2021,04,17,12,58,16.30
2021,04,17,12,59,16.50
2021,04,17,13,00,16.70
2021,04,17,13,01,16.90
2021,04,17,13,02,17.00
2021,04,17,13,03,17.20
2021,04,17,13,04,17.30
2021,04,17,13,05,17.50
2021,04,17,13,06,17.80
2021,04,17,13,07,17.90
2021,04,17,13,08,18.00
2021,04,17,13,09,18.10
2021,04,17,13,10,18.20
2021,04,17,13,11,18.20
2021,04,17,13,12,18.20
2021,04,17,13,13,18.20
2021,04,17,13,14,18.20
2021,04,17,13,15,18.20
2021,04,17,13,16,18.30
2021,04,17,13,17,18.30
2021,04,17,13,18,18.30
2021,04,17,13,19,18.30
2021,04,17,13,20,18.30
2021,04,17,13,21,18.20
2021,04,17,13,22,18.20
2021,04,17,13,23,18.20
2021,04,17,13,24,18.10
2021,04,17,13,25,18.10
2021,04,17,13,26,18.20
2021,04,17,13,27,18.20
2021,04,17,13,28,18.20
2021,04,17,13,29,18.20
2021,04,17,13,30,18.20
2021,04,17,13,31,18.20
2021,04,17,13,32,18.20
2021,04,17,13,33,18.20
2021,04,17,13,34,18.20
2021,04,17,13,35,18.30
2021,04,17,13,36,18.30
2021,04,17,13,37,18.40
2021,04,17,13,38,18.40
2021,04,17,13,39,18.50
2021,04,17,13,40,18.70
2021,04,17,13,41,18.70
2021,04,17,13,42,18.90
2021,04,17,13,43,18.90
2021,04,17,13,44,18.80
2021,04,17,13,45,18.80
2021,04,17,13,46,18.90
2021,04,17,13,47,18.90
2021,04,17,13,48,19.00
2021,04,17,13,49,19.10
2021,04,17,13,50,19.10
2021,04,17,13,51,19.30
2021,04,17,13,52,19.40
2021,04,17,13,53,19.50
2021,04,17,13,54,19.50
2021,04,17,13,55,19.60
2021,04,17,13,56,19.60
2021,04,17,13,57,19.70
2021,04,17,13,58,19.80
2021,04,17,13,59,19.90
2021,04,17,14,00,19.90
2021,04,17,14,01,20.10
2021,04,17,14,02,20.20
2021,04,17,14,03,20.30
2021,04,17,14,04,20.40
2021,04,17,14,05,20.50
2021,04,17,14,06,20.60
2021,04,17,14,07,20.70
2021,04,17,14,08,20.80
2021,04,17,14,09,21.00
2021,04,17,14,10,21.20
2021,04,17,14,11,21.50
2021,04,17,14,12,21.70
2021,04,17,14,13,21.90
2021,04,17,14,14,22.10
2021,04,17,14,15,22.30
2021,04,17,14,16,22.50
2021,04,17,14,17,22.60
2021,04,17,14,18,22.70
2021,04,17,14,19,22.80
2021,04,17,14,20,22.90
2021,04,17,14,21,23.00
2021,04,17,14,22,23.10
2021,04,17,14,23,23.20
2021,04,17,14,24,23.20
2021,04,17,14,25,23.30
2021,04,17,14,26,23.40
2021,04,17,14,27,23.50
2021,04,17,14,28,23.60
2021,04,17,14,29,23.70
2021,04,17,14,30,23.70
2021,04,17,14,31,23.70
2021,04,17,14,32,23.70
2021,04,17,14,33,23.70
2021,04,17,14,34,23.70
2021,04,17,14,35,23.80
2021,04,17,14,36,23.80
2021,04,17,14,37,23.90
2021,04,17,14,38,23.90
2021,04,17,14,39,23.80
2021,04,17,14,40,23.70
2021,04,17,14,41,23.70
2021,04,17,14,42,23.60
2021,04,17,14,43,23.60
2021,04,17,14,44,23.60
2021,04,17,14,45,23.60
2021,04,17,14,46,23.70
2021,04,17,14,47,23.70
2021,04,17,14,48,23.80
2021,04,17,14,49,23.80
2021,04,17,14,50,23.80
2021,04,17,14,51,23.80
2021,04,17,14,52,23.90
2021,04,17,14,53,23.90
2021,04,17,14,54,24.10
2021,04,17,14,55,24.00
2021,04,17,14,56,23.90
2021,04,17,14,57,23.90
2021,04,17,14,58,23.80
2021,04,17,14,59,23.80
2021,04,17,15,00,23.70
2021,04,17,15,01,23.70
2021,04,17,15,02,23.70
2021,04,17,15,03,23.60
2021,04,17,15,04,23.60
2021,04,17,15,05,23.60
2021,04,17,15,06,23.70
2021,04,17,15,07,23.70
2021,04,17,15,08,23.70
2021,04,17,15,09,23.70
2021,04,17,15,10,23.70
2021,04,17,15,11,23.70
2021,04,17,15,12,23.70
2021,04,17,15,13,23.70
2021,04,17,15,14,23.70
2021,04,17,15,15,23.70
2021,04,17,15,16,23.70
2021,04,17,15,17,23.70
2021,04,17,15,18,23.70
2021,04,17,15,19,23.70
2021,04,17,15,20,23.70
2021,04,17,15,21,23.70
2021,04,17,15,22,23.80
2021,04,17,15,23,23.80
2021,04,17,15,24,23.90
2021,04,17,15,25,24.00
2021,04,17,15,26,24.10
2021,04,17,15,27,24.20
2021,04,17,15,28,24.20
2021,04,17,15,29,24.10
2021,04,17,15,30,24.10
2021,04,17,15,31,24.10
2021,04,17,15,32,23.90
2021,04,17,15,33,23.80
2021,04,17,15,34,23.70
2021,04,17,15,35,23.70
2021,04,17,15,36,23.70
2021,04,17,15,37,23.70
2021,04,17,15,38,23.60
2021,04,17,15,39,23.60
2021,04,17,15,40,23.40
2021,04,17,15,41,23.40
2021,04,17,15,42,23.40
2021,04,17,15,43,23.50
2021,04,17,15,44,23.60
2021,04,17,15,45,23.70
2021,04,17,15,46,23.80
2021,04,17,15,47,23.80
2021,04,17,15,48,23.80
2021,04,17,15,49,23.80
2021,04,17,15,50,23.70
2021,04,17,15,51,23.70
2021,04,17,15,52,23.70
2021,04,17,15,53,23.70
2021,04,17,15,54,23.60
2021,04,17,15,55,23.60
2021,04,17,15,56,23.60
2021,04,17,15,57,23.70
2021,04,17,15,58,23.70
2021,04,17,15,59,23.70
2021,04,17,16,00,23.70
2021,04,17,16,01,23.70
2021,04,17,16,02,23.70
2021,04,17,16,03,23.70
2021,04,17,16,04,23.80
2021,04,17,16,05,23.70
2021,04,17,16,06,23.80
2021,04,17,16,07,23.90
2021,04,17,16,08,23.90
2021,04,17,16,09,24.00
2021,04,17,16,10,24.10
2021,04,17,16,11,24.10
2021,04,17,16,12,24.20
2021,04,17,16,13,24.20
2021,04,17,16,14,24.30
2021,04,17,16,15,24.30
2021,04,17,16,16,24.30
2021,04,17,16,17,24.20
2021,04,17,16,18,24.20
2021,04,17,16,19,24.30
2021,04,17,16,20,24.30
2021,04,17,16,21,24.40
2021,04,17,16,22,24.50
2021,04,17,16,23,24.50
2021,04,17,16,24,24.40
2021,04,17,16,25,24.40
2021,04,17,16,26,24.40
2021,04,17,16,27,24.40
2021,04,17,16,28,24.40
2021,04,17,16,29,24.40
2021,04,17,16,30,24.30
2021,04,17,16,31,24.20
2021,04,17,16,32,24.20
2021,04,17,16,33,24.20
2021,04,17,16,34,24.20
2021,04,17,16,35,24.20
2021,04,17,16,36,24.10
2021,04,17,16,37,24.10
2021,04,17,16,38,24.10
2021,04,17,16,39,24.10
2021,04,17,16,40,24.20
2021,04,17,16,41,24.20
2021,04,17,16,42,24.20
2021,04,17,16,43,24.30
2021,04,17,16,44,24.30
2021,04,17,16,45,24.20
2021,04,17,16,46,24.10
2021,04,17,16,47,24.10
2021,04,17,16,48,24.00
2021,04,17,16,49,23.90
2021,04,17,16,50,23.90
2021,04,17,16,51,24.00
2021,04,17,16,52,24.10
2021,04,17,16,53,24.10
2021,04,17,16,54,24.10
2021,04,17,16,55,24.10
2021,04,17,16,56,24.20
2021,04,17,16,57,24.30
2021,04,17,16,58,24.40
2021,04,17,16,59,24.40
2021,04,17,17,00,24.30
2021,04,17,17,01,24.20
2021,04,17,17,02,24.10
2021,04,17,17,03,24.10
2021,04,17,17,04,24.20
2021,04,17,17,05,24.30
2021,04,17,17,06,24.30
2021,04,17,17,07,24.20
2021,04,17,17,08,24.10
2021,04,17,17,09,24.00
2021,04,17,17,10,23.90
2021,04,17,17,11,23.80
2021,04,17,17,12,23.80
2021,04,17,17,13,23.80
2021,04,17,17,14,23.80
2021,04,17,17,15,23.80
2021,04,17,17,16,23.80
2021,04,17,17,17,23.80
2021,04,17,17,18,23.90
2021,04,17,17,19,23.90
2021,04,17,17,20,24.00
2021,04,17,17,21,24.10
2021,04,17,17,22,24.10
2021,04,17,17,23,24.20
2021,04,17,17,24,24.20
2021,04,17,17,25,24.20
2021,04,17,17,26,24.20
2021,04,17,17,27,24.20
2021,04,17,17,28,24.20
2021,04,17,17,29,24.20
2021,04,17,17,30,24.30
2021,04,17,17,31,24.30
2021,04,17,17,32,24.30
2021,04,17,17,33,24.30
2021,04,17,17,34,24.00
2021,04,17,17,35,23.60
2021,04,17,17,36,23.30
2021,04,17,17,37,22.90
2021,04,17,17,38,22.60